Location: Central Falls
(41.8900°N, 71.3929°W)
Time: 02:42:48
(UTC+00:00)

Vanguard 2 Rocket - Pass Details

Date: 11 December 2023
Orbit: 555 x 3309 km, 32.9° (Epoch: 01 March)

Event Time Altitude Azimuth Distance (km) Brightness Sun altitude
Rises 15:38:56 0° 206° (SSW) 4,746 11.3 23.6°
Reaches altitude 10° 15:42:11 10° 195° (SSW) 4,124 11.4 23.8°
Maximum altitude 15:52:00 30° 139° (SE) 3,675 11.4 24.2°
Drops below altitude 10° 16:06:04 10° 88° (E) 6,001 11.2 24.7°
Sets 16:12:02 0° 80° (E) 7,222 11.5 24.8°
